Powrót do katalogu

SL-16 DEB

AktywnyLEO
NORAD 23089·DEBRIS·🇷🇺 Russia

Wystrzelony Apr 23, 1994 z Baikonur Cosmodrome

Loading…

Następne Przeloty (najbliższe 24 godziny)

TLE

ŚwieżeSource: Space-Track

Epoka: Sep 14, 2026, 10:22 UTC

1 23089U 94023C   26257.43248519  .00000039  00000-0  74888-4 0  9999
2 23089  71.0206 267.8177 0198237 193.2499 166.3355 13.74307053623918

Śledź SL-16 DEB w czasie rzeczywistym z AllMySat

Download on the App Store